Regional Weather Roundup
Issued by NWS Spokane, WA

Home | Current Version | Previous Version | Text Only | Print | Product List | Glossary On
Versions: 1 2 3 4 5 6 7 8 9 10 11 12 13 14 15 16 17 18 19 20 21 22 23 24 25 26 27 28 29 30 31 32 33 34 35 36 37 38 39 40 41 42 43 44 45 46 47 48 49 50
617
NZUS01 KOTX 180605
RWROTX

Eastern Washington/Northern Idaho Roundup
National Weather Service, Spokane WA
1000 PM PST TUE JAN 17 2017

Note: "fair" indicated few or no clouds below 12,000 feet with no
significant weather and/or obstructions to visibility.

...Northeast Washington and Northern Idaho Panhandle...

CITY           SKY/WX    TMP DP  RH WIND       PRES   REMARKS
Spokane Intl   FRZ RAIN  29  26  89 E6        29.80S FOG     WCI  23
Spokane Downto MIX PCPN  31  28  89 CALM      29.83S FOG
Coeur d Alene  FLURRIES  28  27  96 NE9       29.82R WCI  19
Deer Park      LGT SNOW  29  26  89 NE3       29.82R FOG
Sandpoint      FLURRIES  30  25  80 SW3       29.83S
Bonners Ferry  CLOUDY    27  21  80 CALM      29.81S

...Southeast Washington and southern Idaho Panhandle...

CITY           SKY/WX    TMP DP  RH WIND       PRES   REMARKS
Walla Walla    FRZ RAIN  17  12  80 CALM      29.81F
Pullman/Moscow MIX PCPN  33  20  58 SE21G30   29.83F WCI  21
Lewiston       CLOUDY    34  20  56 SE14G23   29.88F WCI  25
Lowell           N/A     27  24  89 N7        29.94F WCI  19
Grangeville    FAIR      30  23  74 N7        29.82F WCI  23

...Columbia Basin...

CITY           SKY/WX    TMP DP  RH WIND       PRES   REMARKS
Ephrata        FRZ RAIN  23  18  81 NE5       29.81F WCI  17
Moses Lake     FRZ RAIN  23  21  92 CALM      29.83F FOG
Pasco          FRZ RAIN  21  19  92 CALM      29.89F FOG
Richland       LGT SNOW  22  19  89 CALM      29.89F
Hermiston      FRZ RAIN  20  17  88 CALM      29.84F FOG
Pendleton      FRZ RAIN  21  19  92 N7        29.76F FOG     WCI  12

...East Slopes Cascades...

CITY           SKY/WX    TMP DP  RH WIND       PRES   REMARKS
The Dalles     CLOUDY    22  18  85 W3        29.88F FOG
Yakima         MIX PCPN  22  17  81 CALM      29.83F
Ellensburg     FRZ RAIN  22  17  81 CALM      29.76S
Wenatchee      CLOUDY    18  17  96 W3        29.83F FOG
Omak           LGT SNOW  21  17  84 SE5       29.81F VSB 3/4 WCI  15
Sunnyside      CLOUDY    19  15  88 SW3       29.87R FOG

...Southern British Columbia...

CITY           SKY/WX    TMP DP  RH WIND       PRES   REMARKS

...Western Montana...

CITY           SKY/WX    TMP DP  RH WIND       PRES   REMARKS
Kalispell      CLOUDY    19  17  92 CALM      29.83F
Missoula       MOCLDY     9   6  88 CALM      29.92F

...Neighboring Cities...

CITY           SKY/WX    TMP DP  RH WIND       PRES   REMARKS
Seattle        LGT RAIN  45  45 100 SE7       29.53R FOG
Portland       FRZ RAIN  32  30  92 SE22      29.63F FOG     WCI  19
Boise          CLEAR      6   2  83 CALM      30.17R FOG
Great Falls    CLOUDY    39  25  57 SW22      29.68F



USA.gov is the U.S. government's official web portal to all federal, state and local government web resources and services.